Date,TemperatureHighF,TemperatureAvgF,TemperatureLowF,DewpointHighF,DewpointAvgF,DewpointLowF,HumidityHigh,HumidityAvg,HumidityLow,PressureMaxIn,PressureMinIn,WindSpeedMaxMPH,WindSpeedAvgMPH,GustSpeedMaxMPH,PrecipitationSumIn
2013-1-1,80.6,68.2,57.6,67.7,58.6,51.2,100,75,36,30.17,29.99,6,1,10,0.00
2013-1-2,79.5,69.0,63.1,71.1,66.9,62.9,100,93,71,30.02,29.94,5,1,11,0.00
2013-1-3,87.8,69.2,61.5,76.0,65.5,58.7,100,90,42,30.09,29.96,11,2,17,0.00
2013-1-4,65.7,61.7,59.0,63.9,61.2,58.4,100,98,91,30.22,30.06,12,6,17,0.01
2013-1-5,86.4,67.3,59.4,68.0,62.9,55.3,100,88,37,30.24,30.11,11,3,14,0.00
2013-1-6,88.5,71.0,64.0,73.1,67.4,63.8,100,90,48,30.14,30.01,6,1,10,0.00
2013-1-7,69.1,65.8,62.6,67.9,64.7,62.3,100,96,84,30.15,30.04,12,6,17,0.01
2013-1-8,93.0,73.5,63.5,72.7,67.3,60.4,100,84,35,30.16,30.05,7,2,10,0.00
2013-1-9,94.8,77.2,69.6,75.3,70.5,60.4,100,83,33,30.22,30.10,4,1,8,0.00
2013-1-10,90.0,75.3,69.4,75.3,68.5,55.0,100,83,33,30.22,30.13,4,1,10,0.00
2013-1-11,87.8,74.6,68.0,72.7,67.9,9.6,100,83,32,30.21,30.06,14,1,14,0.00
2013-1-12,90.5,74.8,68.0,72.1,69.5,65.3,100,86,44,30.13,30.01,4,1,8,0.00
2013-1-13,88.5,75.0,67.3,71.8,68.9,64.8,100,84,46,30.11,29.99,3,1,7,0.00
2013-1-14,88.2,73.6,66.7,71.3,64.7,49.6,100,78,30,30.12,30.06,5,1,9,0.00
2013-1-15,87.8,73.7,65.3,70.7,67.4,61.4,100,84,43,30.09,29.99,4,0,7,0.00
2013-1-16,85.6,73.7,67.5,72.1,68.6,63.3,100,86,50,30.05,29.95,5,1,11,0.00
2013-1-17,77.7,66.7,58.8,76.5,63.6,50.2,100,90,68,30.11,29.95,8,2,17,0.04
2013-1-18,66.4,57.3,45.3,61.9,49.8,37.9,100,78,38,30.27,30.10,21,7,25,0.00
2013-1-19,74.7,65.5,56.3,66.7,61.6,54.5,100,88,68,30.22,30.07,11,4,16,0.00
2013-1-20,85.3,68.6,62.6,68.0,64.8,58.8,100,89,44,30.12,29.98,7,2,10,0.00
2013-1-21,82.9,68.1,63.5,67.1,61.7,56.0,94,81,48,30.06,29.97,97,2,97,0.00
2013-1-22,68.0,63.1,58.5,57.9,39.6,17.1,83,46,15,30.24,30.02,12,5,17,0.00
2013-1-23,79.2,61.3,52.7,54.8,33.8,10.4,88,41,10,30.32,30.22,12,4,14,0.00
2013-1-24,80.1,63.5,53.4,60.5,47.3,25.8,100,63,14,30.30,30.20,9,2,11,0.00
2013-1-25,84.0,65.5,56.1,60.1,53.3,26.4,100,74,14,30.28,30.14,4,1,7,0.00
2013-1-26,81.0,66.8,54.9,63.9,56.5,40.3,100,76,25,30.25,30.13,4,1,9,0.00
2013-1-27,84.0,69.0,59.7,63.9,57.9,41.9,100,74,25,30.26,30.14,7,2,9,0.00
2013-1-28,87.3,70.6,62.8,68.4,64.2,55.8,100,83,37,30.27,30.14,3,1,7,0.00
2013-1-29,84.7,71.8,63.7,71.6,67.8,63.4,100,89,53,30.18,30.03,5,2,11,0.00
2013-1-30,80.6,72.4,68.0,71.8,69.7,67.7,100,92,71,30.04,29.86,10,3,20,0.00
2013-1-31,70.9,62.9,55.6,69.4,45.9,25.6,99,59,22,30.20,29.87,7,2,17,0.04
2013-2-1,72.5,59.6,50.2,49.5,32.8,6.4,76,44,10,30.32,30.17,14,4,18,0.00
2013-2-2,81.9,62.7,52.0,53.4,39.8,13.0,83,52,10,30.25,30.11,13,3,17,0.00
2013-2-3,77.2,62.7,53.2,59.9,50.9,35.9,100,71,23,30.17,30.06,4,1,8,0.00
2013-2-4,78.4,63.2,54.5,55.6,42.6,13.0,92,56,10,30.11,30.00,6,1,8,0.00
2013-2-5,82.2,65.9,54.5,62.5,47.6,34.4,100,58,20,30.05,29.95,4,1,7,0.00
2013-2-6,82.9,69.3,59.9,67.5,61.9,48.5,100,82,32,30.06,29.97,5,0,10,0.00
2013-2-7,79.9,70.3,64.0,69.8,66.9,63.6,100,90,63,30.01,29.82,98,2,98,0.09
2013-2-8,84.0,70.5,63.0,69.4,64.4,54.9,100,84,41,30.03,29.83,5,1,12,0.02
2013-2-9,83.3,68.0,0.0,63.1,54.5,5.2,99,69,10,30.14,30.01,109,6,109,0.76
2013-2-10,86.7,71.8,63.9,67.0,62.9,51.4,100,77,34,30.19,30.07,5,2,11,0.00
2013-2-11,80.6,71.5,32.0,76.0,67.1,26.2,100,87,62,30.14,30.03,146,6,146,0.00
2013-2-12,81.7,73.6,68.0,73.1,70.3,67.7,99,90,72,30.05,29.90,4,2,102,0.01
2013-2-13,79.0,79.0,79.0,72.3,72.3,72.3,80,80,80,29.93,29.81,3,3,5,0.00
2013-2-14,79.0,79.0,79.0,72.3,72.3,72.3,80,80,80,29.99,29.87,3,3,5,0.00
2013-2-15,79.0,79.0,79.0,72.3,72.3,72.3,80,80,80,30.03,29.91,3,3,5,0.00
2013-2-16,79.0,78.3,57.2,72.3,71.1,12.3,80,79,38,30.08,29.89,100,3,100,0.26
2013-2-17,57.2,57.2,57.2,31.8,31.8,31.8,38,38,38,30.30,30.08,5,5,11,0.00
2013-2-18,57.2,57.2,57.2,31.8,31.8,31.8,38,38,38,30.31,30.16,5,5,11,0.00
2013-2-19,57.2,57.2,57.2,31.8,31.8,31.8,38,38,38,30.17,30.04,5,5,11,0.00
2013-2-20,57.2,57.2,57.2,31.8,31.8,31.8,38,38,38,30.08,29.96,5,5,11,0.00
2013-2-21,87.1,64.7,55.2,70.0,46.6,31.8,100,55,38,30.06,29.93,5,4,100,0.01
2013-2-22,103.8,72.8,0.0,73.2,67.9,36.6,100,86,10,30.02,29.94,6,2,14,0.00
2013-2-23,70.0,69.5,52.3,69.7,68.2,1.9,99,97,10,29.95,29.84,100,5,100,0.02
2013-2-24,69.8,69.8,69.8,69.5,69.5,69.5,99,99,99,29.92,29.83,4,4,9,0.00
2013-2-25,69.8,69.8,69.8,69.5,69.5,69.5,99,99,99,29.85,29.71,4,4,9,0.00
2013-2-26,78.4,70.1,67.5,74.6,69.3,9.0,99,98,35,29.84,29.65,97,2,97,0.15
2013-2-27,101.8,69.7,61.7,99.9,60.9,27.8,100,77,36,29.93,29.82,3,1,8,0.00
2013-2-28,62.4,62.4,61.7,60.7,59.6,59.5,96,90,90,29.97,29.87,3,2,6,0.00
2013-3-1,62.4,62.4,62.4,59.5,59.5,59.5,90,90,90,29.99,29.88,2,2,4,0.00
2013-3-2,62.4,62.4,62.4,59.5,59.5,59.5,90,90,90,30.04,29.95,2,2,4,0.00
2013-3-3,62.4,62.4,62.4,59.5,59.5,59.5,90,90,90,30.13,29.94,2,2,4,0.00
2013-3-4,62.4,62.4,62.4,59.5,59.5,59.5,90,90,90,30.20,30.08,2,2,4,0.00
2013-3-5,62.4,62.4,62.4,59.5,59.5,59.5,90,90,90,30.14,30.01,2,2,4,0.00
2013-3-6,62.4,62.4,62.4,59.5,59.5,59.5,90,90,90,30.11,29.93,2,2,4,0.00
2013-3-7,62.4,62.4,62.4,59.5,59.5,59.5,90,90,90,30.19,30.08,2,2,4,0.00
2013-3-8,62.4,62.4,62.4,59.5,59.5,59.5,90,90,90,30.19,30.09,2,2,4,0.00
2013-3-9,81.7,66.9,62.4,59.5,52.3,18.5,90,67,10,30.17,30.06,4,1,9,0.02
2013-3-10,81.1,68.3,59.7,62.1,52.3,42.5,90,61,27,30.11,29.99,4,2,8,0.00
2013-3-11,80.8,69.6,61.5,70.4,60.6,56.0,100,76,45,30.05,29.85,100,2,100,0.00
2013-3-12,73.4,65.9,59.9,68.8,62.6,36.0,100,90,35,30.01,29.80,8,3,15,0.33
2013-3-13,72.3,61.1,60.3,57.9,9.9,3.8,90,18,10,30.16,29.99,9,6,11,0.00
2013-3-14,68.5,59.9,34.2,44.5,12.4,2.3,64,20,10,30.23,30.12,100,9,100,0.76
2013-3-15,56.5,56.5,56.5,44.5,44.5,44.5,64,64,64,30.26,30.12,3,3,6,0.00
2013-3-16,56.5,56.5,56.5,44.5,44.5,44.5,64,64,64,30.16,30.03,3,3,6,0.00
2013-3-17,56.5,56.5,56.5,44.5,44.5,44.5,64,64,64,30.09,29.96,3,3,6,0.00
2013-3-18,56.5,56.5,56.5,44.5,44.5,44.5,64,64,64,29.99,29.82,3,3,6,0.00
2013-3-19,83.7,60.8,56.5,68.3,51.3,44.5,99,72,53,29.97,29.83,7,2,7,0.08
2013-3-20,66.0,66.0,66.0,65.8,65.8,65.8,99,99,99,29.91,29.75,0,0,0,0.00
2013-3-21,66.0,66.0,66.0,65.8,65.8,65.8,99,99,99,29.95,29.83,0,0,0,0.00
2013-3-22,66.0,66.0,66.0,65.8,65.8,65.8,99,99,99,29.95,29.83,0,0,0,0.00
2013-3-23,66.0,66.0,66.0,65.8,65.8,65.8,99,99,99,29.91,29.75,0,0,0,0.00
2013-3-24,74.8,67.6,66.0,74.4,67.2,13.4,99,99,10,29.77,29.61,2,0,6,0.35
2013-3-25,75.0,68.1,61.0,69.2,50.6,14.8,100,59,10,30.02,29.70,98,4,100,0.00
2013-3-26,68.7,68.7,68.7,42.1,42.1,42.1,38,38,38,30.22,30.00,4,4,9,0.00
2013-3-27,68.7,68.7,68.7,42.1,42.1,42.1,38,38,38,30.30,30.17,4,4,9,0.00
2013-3-28,68.7,68.7,68.7,42.1,42.1,42.1,38,38,38,30.27,30.17,4,4,9,0.00
2013-3-29,68.7,68.7,68.7,42.1,42.1,42.1,38,38,38,30.29,30.15,4,4,9,0.00
2013-3-30,81.9,69.5,61.9,61.9,47.7,6.4,97,49,10,30.22,30.09,49,3,49,0.00
2013-3-31,101.1,70.9,48.9,70.9,56.4,40.7,97,65,28,30.13,29.96,97,1,125,0.01
2013-4-1,69.4,69.4,69.4,64.4,64.4,64.4,84,84,84,29.99,29.92,0,0,2,0.00
2013-4-2,69.4,69.4,69.4,64.4,64.4,64.4,84,84,84,30.05,29.95,0,0,2,0.00
2013-4-3,69.4,69.4,69.4,64.4,64.4,64.4,84,84,84,30.02,29.88,0,0,2,0.00
2013-4-4,69.4,69.4,69.4,64.4,64.4,64.4,84,84,84,30.04,29.80,0,0,2,0.00
2013-4-5,69.4,69.4,69.4,64.4,64.4,64.4,84,84,84,29.93,29.76,0,0,2,0.00
2013-4-6,78.4,73.6,69.4,64.4,56.2,45.7,84,60,32,30.05,29.93,2,0,4,1.96
2013-4-7,78.4,78.4,78.4,47.0,47.0,47.0,33,33,33,30.09,29.99,1,1,2,0.00
2013-4-8,78.4,77.2,71.2,69.0,50.5,47.0,92,42,33,30.07,29.98,4,1,5,0.00
2013-4-9,88.9,74.7,67.3,69.0,65.8,59.1,100,75,37,30.09,29.99,4,1,8,0.00
2013-4-10,73.6,69.4,69.1,67.9,67.5,64.3,96,94,73,30.05,29.90,4,2,7,0.00
2013-4-11,69.1,69.1,69.1,67.9,67.9,67.9,96,96,96,29.93,29.76,2,2,3,0.00
2013-4-12,69.1,69.1,69.1,67.9,67.9,67.9,96,96,96,29.88,29.76,2,2,3,0.00
2013-4-13,69.1,69.1,69.1,67.9,67.9,67.9,96,96,96,29.93,29.82,2,2,3,0.00
2013-4-14,69.1,69.1,69.1,67.9,67.9,67.9,96,96,96,29.96,29.80,2,2,3,0.00
2013-4-15,69.1,69.1,69.1,67.9,67.9,67.9,96,96,96,30.02,29.88,2,2,3,0.00
2013-4-16,69.1,69.1,69.1,67.9,67.9,67.9,96,96,96,30.07,29.95,2,2,3,0.00
2013-4-17,69.1,69.1,69.1,67.9,67.9,67.9,96,96,96,30.07,29.94,2,2,3,0.00
2013-4-18,69.1,69.1,69.1,67.9,67.9,67.9,96,96,96,29.99,29.88,2,2,3,0.00
2013-4-19,69.1,69.1,69.1,67.9,67.9,67.9,96,96,96,29.96,29.88,2,2,3,0.00
2013-4-20,69.1,69.1,69.1,67.9,67.9,67.9,96,96,96,30.07,29.91,2,2,3,0.00
2013-4-21,69.1,69.1,69.1,67.9,67.9,67.9,96,96,96,30.06,29.95,2,2,3,0.00
2013-4-22,69.1,69.1,69.1,67.9,67.9,67.9,96,96,96,30.03,29.91,2,2,3,0.00
2013-4-23,69.1,69.1,69.1,67.9,67.9,67.9,96,96,96,30.05,29.94,2,2,3,0.00
2013-4-24,69.1,69.1,69.1,67.9,67.9,67.9,96,96,96,30.08,30.01,2,2,3,0.00
2013-4-25,69.1,69.1,69.1,67.9,67.9,67.9,96,96,96,30.16,30.03,2,2,3,0.00
2013-4-26,69.1,69.1,69.1,67.9,67.9,67.9,96,96,96,30.19,30.08,2,2,3,0.00
2013-4-27,69.1,69.1,69.1,67.9,67.9,67.9,96,96,96,30.16,30.01,2,2,3,0.00
2013-4-28,69.1,69.1,69.1,67.9,67.9,67.9,96,96,96,30.05,29.91,2,2,3,0.00
2013-4-29,69.1,69.1,69.1,67.9,67.9,67.9,96,96,96,29.96,29.85,2,2,3,0.00
2013-4-30,69.1,69.1,69.1,67.9,67.9,67.9,96,96,96,29.93,29.85,2,2,3,0.00
2013-5-1,69.1,69.1,69.1,67.9,67.9,67.9,96,96,96,29.93,29.84,2,2,3,0.00
2013-5-2,69.1,69.1,69.1,67.9,67.9,67.9,96,96,96,29.91,29.75,2,2,3,0.00
2013-5-3,69.1,69.1,69.1,67.9,67.9,67.9,96,96,96,29.77,29.67,2,2,3,0.00
2013-5-4,69.1,69.1,69.1,67.9,67.9,67.9,96,96,96,29.77,29.63,2,2,3,0.00
2013-5-5,69.1,69.1,69.1,67.9,67.9,67.9,96,96,96,29.91,29.75,2,2,3,0.00
2013-5-6,69.1,69.1,69.1,67.9,67.9,67.9,96,96,96,29.97,29.85,2,2,3,0.00
2013-5-7,69.1,69.1,69.1,67.9,67.9,67.9,96,96,96,30.01,29.92,2,2,3,0.00
2013-5-8,69.1,69.1,69.1,67.9,67.9,67.9,96,96,96,30.10,29.99,2,2,3,0.00
2013-5-9,69.1,69.1,69.1,67.9,67.9,67.9,96,96,96,30.11,30.02,2,2,3,0.00
2013-5-10,91.6,81.2,69.1,67.9,65.7,54.5,96,65,32,30.09,29.95,3,1,6,1.24
2013-5-11,91.6,91.6,91.6,66.7,66.7,66.7,44,44,44,30.01,29.94,0,0,2,0.00
2013-5-12,91.6,91.6,91.6,66.7,66.7,66.7,44,44,44,30.00,29.88,0,0,2,0.00
2013-5-13,91.6,91.6,91.6,66.7,66.7,66.7,44,44,44,30.08,29.95,0,0,2,0.00
2013-5-14,91.6,91.6,91.6,66.7,66.7,66.7,44,44,44,30.16,30.05,0,0,2,0.00
2013-5-15,91.6,91.6,91.6,66.7,66.7,66.7,44,44,44,30.15,30.02,0,0,2,0.00
2013-5-16,91.6,82.6,75.2,66.7,59.4,55.8,57,46,44,30.08,29.94,4,2,8,0.00
2013-5-17,78.3,78.3,78.3,55.8,55.8,55.8,46,46,46,30.05,29.96,3,3,8,0.00
2013-5-18,78.3,78.3,78.3,55.8,55.8,55.8,46,46,46,30.06,29.96,3,3,8,0.00
2013-5-19,78.3,78.3,78.3,55.8,55.8,55.8,46,46,46,30.05,29.93,3,3,8,0.00
2013-5-20,78.3,78.3,78.3,55.8,55.8,55.8,46,46,46,30.02,29.91,3,3,8,0.00
2013-5-21,78.3,78.3,78.3,55.8,55.8,55.8,46,46,46,29.98,29.86,3,3,8,0.00
2013-5-22,78.3,78.3,78.3,55.8,55.8,55.8,46,46,46,29.92,29.84,3,3,8,0.00
2013-5-23,78.3,78.3,78.3,55.8,55.8,55.8,46,46,46,29.98,29.85,3,3,8,0.00
2013-5-24,78.3,78.3,78.3,55.8,55.8,55.8,46,46,46,30.02,29.92,3,3,8,0.00
2013-5-25,78.3,78.3,78.3,55.8,55.8,55.8,46,46,46,30.10,29.99,3,3,8,0.00
2013-5-26,78.3,78.3,78.3,55.8,55.8,55.8,46,46,46,30.15,30.04,3,3,8,0.00
2013-5-27,78.3,78.3,78.3,55.8,55.8,55.8,46,46,46,30.12,29.97,3,3,8,0.00
2013-5-28,78.3,78.3,78.3,55.8,55.8,55.8,46,46,46,30.08,30.00,3,3,8,0.00
2013-5-31,78.3,78.3,78.3,55.8,55.8,55.8,46,46,46,29.99,29.94,3,3,8,0.00
2013-6-1,78.3,78.3,78.3,55.8,55.8,55.8,46,46,46,29.99,29.89,3,3,8,0.00
2013-6-2,78.3,78.3,78.3,55.8,55.8,55.8,46,46,46,29.94,29.85,3,3,8,0.00
2013-6-3,78.3,78.3,78.3,55.8,55.8,55.8,46,46,46,29.94,29.85,3,3,8,0.00
2013-6-4,78.3,78.3,78.3,55.8,55.8,55.8,46,46,46,29.96,29.88,3,3,8,0.00
2013-6-5,78.3,78.3,78.3,55.8,55.8,55.8,46,46,46,29.95,29.81,3,3,8,0.00
2013-6-6,78.3,78.3,78.3,55.8,55.8,55.8,46,46,46,29.81,29.63,3,3,8,0.00
2013-6-7,78.3,78.3,78.3,55.8,55.8,55.8,46,46,46,29.91,29.73,3,3,8,0.00
2013-6-8,78.3,78.3,78.3,55.8,55.8,55.8,46,46,46,30.03,29.91,3,3,8,0.00
2013-6-9,78.3,78.3,78.3,55.8,55.8,55.8,46,46,46,30.03,29.95,3,3,8,0.00
2013-6-10,96.3,81.9,78.3,72.3,60.3,30.1,65,49,10,30.03,29.95,5,2,8,3.35
2013-6-11,82.0,82.0,82.0,69.2,69.2,69.2,65,65,65,30.03,29.94,0,0,2,0.00
2013-6-12,82.0,82.0,82.0,69.2,69.2,69.2,65,65,65,30.04,29.95,0,0,2,0.00
2013-6-13,94.6,82.9,81.7,72.2,69.4,63.9,73,64,38,30.00,29.86,2,0,4,0.00
2013-6-14,81.7,81.7,81.7,72.2,72.2,72.2,73,73,73,29.91,29.83,0,0,2,0.00
2013-6-15,81.7,81.7,81.7,72.2,72.2,72.2,73,73,73,29.99,29.87,0,0,2,0.00
2013-6-16,81.7,81.7,81.7,72.2,72.2,72.2,73,73,73,30.02,29.95,0,0,2,0.00
2013-6-17,81.7,81.7,81.7,72.2,72.2,72.2,73,73,73,30.02,29.93,0,0,2,0.00
2013-6-18,81.7,81.7,81.7,72.2,72.2,72.2,73,73,73,30.01,29.91,0,0,2,0.00
2013-6-19,81.7,81.7,81.7,72.2,72.2,72.2,73,73,73,29.98,29.92,0,0,2,0.00
2013-6-20,82.9,81.6,79.5,72.2,72.0,68.5,74,73,62,30.04,29.95,3,0,6,0.00
2013-6-21,99.9,87.3,77.7,72.5,67.0,17.3,83,55,24,30.05,29.97,4,1,9,0.00
2013-6-22,98.4,86.5,77.5,74.6,65.9,50.5,89,56,20,30.06,29.98,9,2,12,0.00
2013-6-23,99.7,85.1,75.9,75.4,69.8,54.0,88,65,22,30.07,29.99,11,2,16,0.07
2013-6-24,99.9,86.8,76.5,77.1,69.3,56.9,95,62,27,30.12,30.00,7,1,13,0.22
2013-6-25,100.8,86.4,73.6,78.0,68.9,55.7,99,64,26,30.09,29.96,98,2,98,0.19
2013-6-26,98.1,85.6,76.3,78.3,71.2,62.5,99,66,34,30.02,29.95,5,1,9,0.00
2013-6-27,98.2,87.1,75.9,76.7,69.2,61.3,93,60,31,29.99,29.89,8,1,11,0.00
2013-6-28,97.7,87.8,80.2,75.4,70.1,63.0,79,58,33,29.93,29.80,2,0,8,0.00
2013-6-29,96.3,85.8,77.5,74.3,70.8,63.0,84,63,35,29.83,29.75,4,1,10,0.08
2013-6-30,94.8,85.1,76.8,78.1,72.7,63.8,97,68,42,29.83,29.75,9,1,14,0.22
2013-7-1,82.0,77.8,74.1,76.9,74.4,70.2,99,89,69,29.92,29.79,8,2,16,1.41
2013-7-2,99.1,82.1,74.8,78.0,72.2,57.4,100,75,39,30.00,29.89,7,2,17,0.45
2013-9-9,95.7,2.0,0.0,56.5,56.5,56.5,27,1,27,29.99,29.89,1,0,2,12.04
2013-9-10,0.0,0.0,0.0,56.5,56.5,56.5,10,1,10,30.04,29.95,0,0,0,0.00
2013-9-11,0.0,0.0,0.0,56.5,56.5,56.5,0,0,100,30.03,29.94,0,0,0,0.00
2013-9-12,0.0,0.0,0.0,56.5,56.5,56.5,0,0,100,29.99,29.85,0,0,0,0.00
2013-9-13,0.0,0.0,0.0,56.5,56.5,56.5,0,0,100,29.88,29.78,0,0,0,0.00
2013-9-14,0.0,0.0,0.0,56.5,56.5,56.5,0,0,100,29.94,29.81,0,0,0,0.00
2013-9-15,0.0,0.0,0.0,56.5,56.5,56.5,0,0,100,30.06,29.92,0,0,0,0.00
2013-9-16,0.0,0.0,0.0,56.5,56.5,56.5,0,0,100,30.03,29.95,0,0,0,0.00
2013-9-17,0.0,0.0,0.0,56.5,56.5,56.5,0,0,100,30.02,29.90,0,0,0,0.00
2013-9-18,0.0,0.0,0.0,56.5,56.5,56.5,0,0,100,30.00,29.90,0,0,0,0.00
2013-9-19,0.0,0.0,0.0,56.5,56.5,56.5,0,0,100,30.01,29.92,0,0,0,0.00
2013-9-20,0.0,0.0,0.0,56.5,56.5,56.5,0,0,100,30.00,29.85,0,0,0,0.00
2013-9-21,0.0,0.0,0.0,56.5,56.5,56.5,0,0,100,29.91,29.75,0,0,0,0.00
2013-9-22,78.4,2.7,0.0,68.3,56.9,56.5,71,2,71,29.82,29.73,120,4,0,0.00
2013-9-23,78.4,78.4,78.4,68.3,68.3,68.3,71,71,71,29.92,29.79,120,120,0,0.00
2013-9-24,78.4,78.4,78.4,68.3,68.3,68.3,71,71,71,29.93,29.81,120,120,0,0.00
2013-9-25,78.4,78.4,78.4,68.3,68.3,68.3,71,71,71,29.92,29.76,120,120,0,0.00
2013-9-26,96.6,82.2,35.2,74.0,69.2,26.8,83,66,35,29.84,29.76,120,66,9,0.20
2013-9-27,83.3,80.0,79.5,74.0,71.8,60.7,83,77,49,29.92,29.82,12,2,15,0.00
2013-9-28,81.5,81.5,81.5,63.8,63.8,63.8,55,55,55,29.95,29.87,5,5,8,0.00
2013-9-29,81.5,81.5,81.5,63.8,63.8,63.8,55,55,55,29.95,29.85,5,5,8,0.00
2013-9-30,81.5,81.5,81.5,63.8,63.8,63.8,55,55,55,29.94,29.87,5,5,8,0.00
2013-10-1,81.5,81.5,81.5,63.8,63.8,63.8,55,55,55,30.00,29.91,5,5,8,0.00
2013-10-2,81.5,81.5,81.5,63.8,63.8,63.8,55,55,55,30.00,29.92,5,5,8,0.00
2013-10-3,81.5,81.5,81.5,63.8,63.8,63.8,55,55,55,30.02,29.92,5,5,8,0.00
2013-10-4,81.5,81.5,81.5,63.8,63.8,63.8,55,55,55,30.04,29.95,5,5,8,0.00
2013-10-5,81.5,81.5,81.5,63.8,63.8,63.8,55,55,55,30.02,29.90,5,5,8,0.00
2013-10-6,81.5,81.5,81.5,63.8,63.8,63.8,55,55,55,29.95,29.83,5,5,8,0.00
2013-10-7,81.5,81.5,81.5,63.8,63.8,63.8,55,55,55,29.84,29.73,5,5,8,0.00
2013-10-8,81.5,81.5,81.5,63.8,63.8,63.8,55,55,55,29.91,29.77,5,5,8,0.00
2013-10-9,81.5,81.5,81.5,63.8,63.8,63.8,55,55,55,30.00,29.90,5,5,8,0.00
2013-10-10,81.5,81.5,81.5,63.8,63.8,63.8,55,55,55,30.02,29.92,5,5,8,0.00
2013-10-11,94.3,80.7,33.3,63.8,61.6,17.1,57,53,18,30.01,29.91,5,4,9,0.22
2013-10-12,94.8,83.0,73.9,61.3,50.8,30.4,63,38,11,30.01,29.94,4,2,53,0.00
2013-12-29,0.0,0.0,0.0,49.8,49.8,49.8,0,0,100,29.99,29.97,0,0,0,0.00
2013-12-30,0.0,0.0,0.0,49.8,49.8,49.8,0,0,100,30.17,29.98,0,0,0,0.00
2013-12-31,0.0,0.0,0.0,49.8,49.8,49.8,0,0,100,30.26,30.12,0,0,0,0.00
2014-1-1,0.0,0.0,0.0,49.8,49.8,49.8,0,0,100,30.21,30.01,0,0,0,0.00
2014-1-2,0.0,0.0,0.0,49.8,49.8,49.8,0,0,100,30.01,29.83,0,0,0,0.00